Year,Month,Day,Hour,Minute,Value (Times are PST for temperature in C)
2017,07,17,00,00,14.60
2017,07,17,00,01,14.60
2017,07,17,00,02,14.60
2017,07,17,00,03,14.60
2017,07,17,00,04,14.60
2017,07,17,00,05,14.60
2017,07,17,00,06,14.60
2017,07,17,00,07,14.60
2017,07,17,00,08,14.60
2017,07,17,00,09,14.60
2017,07,17,00,10,14.60
2017,07,17,00,11,14.50
2017,07,17,00,12,14.50
2017,07,17,00,13,14.50
2017,07,17,00,14,14.40
2017,07,17,00,15,14.40
2017,07,17,00,16,14.40
2017,07,17,00,17,14.30
2017,07,17,00,18,14.30
2017,07,17,00,19,14.30
2017,07,17,00,20,14.30
2017,07,17,00,21,14.30
2017,07,17,00,22,14.20
2017,07,17,00,23,14.20
2017,07,17,00,24,14.20
2017,07,17,00,25,14.10
2017,07,17,00,26,14.10
2017,07,17,00,27,14.00
2017,07,17,00,28,13.90
2017,07,17,00,29,13.90
2017,07,17,00,30,13.80
2017,07,17,00,31,13.80
2017,07,17,00,32,13.70
2017,07,17,00,33,13.70
2017,07,17,00,34,13.70
2017,07,17,00,35,13.60
2017,07,17,00,36,13.60
2017,07,17,00,37,13.60
2017,07,17,00,38,13.60
2017,07,17,00,39,13.60
2017,07,17,00,40,13.60
2017,07,17,00,41,13.60
2017,07,17,00,42,13.70
2017,07,17,00,43,13.70
2017,07,17,00,44,13.70
2017,07,17,00,45,13.70
2017,07,17,00,46,13.70
2017,07,17,00,47,13.70
2017,07,17,00,48,13.70
2017,07,17,00,49,13.70
2017,07,17,00,50,13.70
2017,07,17,00,51,13.60
2017,07,17,00,52,13.60
2017,07,17,00,53,13.60
2017,07,17,00,54,13.60
2017,07,17,00,55,13.60
2017,07,17,00,56,13.50
2017,07,17,00,57,13.50
2017,07,17,00,58,13.50
2017,07,17,00,59,13.40
2017,07,17,01,00,13.40
2017,07,17,01,01,13.40
2017,07,17,01,02,13.30
2017,07,17,01,03,13.30
2017,07,17,01,04,13.30
2017,07,17,01,05,13.20
2017,07,17,01,06,13.20
2017,07,17,01,07,13.20
2017,07,17,01,08,13.20
2017,07,17,01,09,13.20
2017,07,17,01,10,13.10
2017,07,17,01,11,13.10
2017,07,17,01,12,13.10
2017,07,17,01,13,13.10
2017,07,17,01,14,13.00
2017,07,17,01,15,13.00
2017,07,17,01,16,12.90
2017,07,17,01,17,12.90
2017,07,17,01,18,12.80
2017,07,17,01,19,12.80
2017,07,17,01,20,12.80
2017,07,17,01,21,12.70
2017,07,17,01,22,12.70
2017,07,17,01,23,12.60
2017,07,17,01,24,12.60
2017,07,17,01,25,12.50
2017,07,17,01,26,12.50
2017,07,17,01,27,12.40
2017,07,17,01,28,12.40
2017,07,17,01,29,12.40
2017,07,17,01,30,12.30
2017,07,17,01,31,12.30
2017,07,17,01,32,12.30
2017,07,17,01,33,12.20
2017,07,17,01,34,12.20
2017,07,17,01,35,12.20
2017,07,17,01,36,12.20
2017,07,17,01,37,12.20
2017,07,17,01,38,12.20
2017,07,17,01,39,12.20
2017,07,17,01,40,12.20
2017,07,17,01,41,12.20
2017,07,17,01,42,12.30
2017,07,17,01,43,12.30
2017,07,17,01,44,12.30
2017,07,17,01,45,12.30
2017,07,17,01,46,12.40
2017,07,17,01,47,12.40
2017,07,17,01,48,12.40
2017,07,17,01,49,12.40
2017,07,17,01,50,12.40
2017,07,17,01,51,12.40
2017,07,17,01,52,12.30
2017,07,17,01,53,12.30
2017,07,17,01,54,12.30
2017,07,17,01,55,12.20
2017,07,17,01,56,12.10
2017,07,17,01,57,12.10
2017,07,17,01,58,12.10
2017,07,17,01,59,12.00
2017,07,17,02,00,12.00
2017,07,17,02,01,12.00
2017,07,17,02,02,12.00
2017,07,17,02,03,12.10
2017,07,17,02,04,12.10
2017,07,17,02,05,12.10
2017,07,17,02,06,12.10
2017,07,17,02,07,12.10
2017,07,17,02,08,12.10
2017,07,17,02,09,12.20
2017,07,17,02,10,12.20
2017,07,17,02,11,12.20
2017,07,17,02,12,12.30
2017,07,17,02,13,12.30
2017,07,17,02,14,12.40
2017,07,17,02,15,12.40
2017,07,17,02,16,12.50
2017,07,17,02,17,12.50
2017,07,17,02,18,12.60
2017,07,17,02,19,12.60
2017,07,17,02,20,12.70
2017,07,17,02,21,12.70
2017,07,17,02,22,12.80
2017,07,17,02,23,12.80
2017,07,17,02,24,12.80
2017,07,17,02,25,12.80
2017,07,17,02,26,12.90
2017,07,17,02,27,12.90
2017,07,17,02,28,12.90
2017,07,17,02,29,12.90
2017,07,17,02,30,12.80
2017,07,17,02,31,12.80
2017,07,17,02,32,12.80
2017,07,17,02,33,12.80
2017,07,17,02,34,12.70
2017,07,17,02,35,12.70
2017,07,17,02,36,12.70
2017,07,17,02,37,12.60
2017,07,17,02,38,12.60
2017,07,17,02,39,12.50
2017,07,17,02,40,12.50
2017,07,17,02,41,12.40
2017,07,17,02,42,12.40
2017,07,17,02,43,12.40
2017,07,17,02,44,12.30
2017,07,17,02,45,12.30
2017,07,17,02,46,12.30
2017,07,17,02,47,12.20
2017,07,17,02,48,12.20
2017,07,17,02,49,12.20
2017,07,17,02,50,12.10
2017,07,17,02,51,12.10
2017,07,17,02,52,12.10
2017,07,17,02,53,12.00
2017,07,17,02,54,12.00
2017,07,17,02,55,11.90
2017,07,17,02,56,11.90
2017,07,17,02,57,11.90
2017,07,17,02,58,11.90
2017,07,17,02,59,11.80
2017,07,17,03,00,11.80
2017,07,17,03,01,11.80
2017,07,17,03,02,11.70
2017,07,17,03,03,11.70
2017,07,17,03,04,11.70
2017,07,17,03,05,11.70
2017,07,17,03,06,11.70
2017,07,17,03,07,11.70
2017,07,17,03,08,11.70
2017,07,17,03,09,11.60
2017,07,17,03,10,11.60
2017,07,17,03,11,11.60
2017,07,17,03,12,11.60
2017,07,17,03,13,11.50
2017,07,17,03,14,11.50
2017,07,17,03,15,11.50
2017,07,17,03,16,11.50
2017,07,17,03,17,11.50
2017,07,17,03,18,11.50
2017,07,17,03,19,11.50
2017,07,17,03,20,11.50
2017,07,17,03,21,11.40
2017,07,17,03,22,11.40
2017,07,17,03,23,11.40
2017,07,17,03,24,11.40
2017,07,17,03,25,11.40
2017,07,17,03,26,11.40
2017,07,17,03,27,11.40
2017,07,17,03,28,11.40
2017,07,17,03,29,11.40
2017,07,17,03,30,11.40
2017,07,17,03,31,11.30
2017,07,17,03,32,11.30
2017,07,17,03,33,11.30
2017,07,17,03,34,11.20
2017,07,17,03,35,11.20
2017,07,17,03,36,11.10
2017,07,17,03,37,11.10
2017,07,17,03,38,11.00
2017,07,17,03,39,10.90
2017,07,17,03,40,10.90
2017,07,17,03,41,10.80
2017,07,17,03,42,10.80
2017,07,17,03,43,10.80
2017,07,17,03,44,10.70
2017,07,17,03,45,10.70
2017,07,17,03,46,10.70
2017,07,17,03,47,10.60
2017,07,17,03,48,10.60
2017,07,17,03,49,10.60
2017,07,17,03,50,10.60
2017,07,17,03,51,10.50
2017,07,17,03,52,10.50
2017,07,17,03,53,10.50
2017,07,17,03,54,10.40
2017,07,17,03,55,10.40
2017,07,17,03,56,10.40
2017,07,17,03,57,10.40
2017,07,17,03,58,10.40
2017,07,17,03,59,10.30
2017,07,17,04,00,10.30
2017,07,17,04,01,10.30
2017,07,17,04,02,10.30
2017,07,17,04,03,10.30
2017,07,17,04,04,10.30
2017,07,17,04,05,10.30
2017,07,17,04,06,10.20
2017,07,17,04,07,10.20
2017,07,17,04,08,10.20
2017,07,17,04,09,10.10
2017,07,17,04,10,10.10
2017,07,17,04,11,10.10
2017,07,17,04,12,10.00
2017,07,17,04,13,10.00
2017,07,17,04,14,10.00
2017,07,17,04,15,10.00
2017,07,17,04,16,10.00
2017,07,17,04,17,10.00
2017,07,17,04,18,10.00
2017,07,17,04,19,10.00
2017,07,17,04,20,10.00
2017,07,17,04,21,10.00
2017,07,17,04,22,10.00
2017,07,17,04,23,10.00
2017,07,17,04,24,10.00
2017,07,17,04,25,10.00
2017,07,17,04,26,10.00
2017,07,17,04,27,10.00
2017,07,17,04,28,10.00
2017,07,17,04,29,10.00
2017,07,17,04,30,10.00
2017,07,17,04,31,10.00
2017,07,17,04,32,9.90
2017,07,17,04,33,9.90
2017,07,17,04,34,9.80
2017,07,17,04,35,9.80
2017,07,17,04,36,9.80
2017,07,17,04,37,9.70
2017,07,17,04,38,9.70
2017,07,17,04,39,9.70
2017,07,17,04,40,9.60
2017,07,17,04,41,9.60
2017,07,17,04,42,9.60
2017,07,17,04,43,9.60
2017,07,17,04,44,9.60
2017,07,17,04,45,9.50
2017,07,17,04,46,9.50
2017,07,17,04,47,9.50
2017,07,17,04,48,9.50
2017,07,17,04,49,9.50
2017,07,17,04,50,9.40
2017,07,17,04,51,9.40
2017,07,17,04,52,9.40
2017,07,17,04,53,9.40
2017,07,17,04,54,9.40
2017,07,17,04,55,9.40
2017,07,17,04,56,9.40
2017,07,17,04,57,9.40
2017,07,17,04,58,9.50
2017,07,17,04,59,9.40
2017,07,17,05,00,9.40
2017,07,17,05,01,9.40
2017,07,17,05,02,9.40
2017,07,17,05,03,9.40
2017,07,17,05,04,9.40
2017,07,17,05,05,9.40
2017,07,17,05,06,9.40
2017,07,17,05,07,9.40
2017,07,17,05,08,9.40
2017,07,17,05,09,9.40
2017,07,17,05,10,9.30
2017,07,17,05,11,9.30
2017,07,17,05,12,9.30
2017,07,17,05,13,9.30
2017,07,17,05,14,9.20
2017,07,17,05,15,9.20
2017,07,17,05,16,9.20
2017,07,17,05,17,9.20
2017,07,17,05,18,9.20
2017,07,17,05,19,9.10
2017,07,17,05,20,9.10
2017,07,17,05,21,9.10
2017,07,17,05,22,9.10
2017,07,17,05,23,9.10
2017,07,17,05,24,9.00
2017,07,17,05,25,9.00
2017,07,17,05,26,9.00
2017,07,17,05,27,9.00
2017,07,17,05,28,9.00
2017,07,17,05,29,9.00
2017,07,17,05,30,9.00
2017,07,17,05,31,9.00
2017,07,17,05,32,8.90
2017,07,17,05,33,8.90
2017,07,17,05,34,8.90
2017,07,17,05,35,8.90
2017,07,17,05,36,8.90
2017,07,17,05,37,8.90
2017,07,17,05,38,8.90
2017,07,17,05,39,8.90
2017,07,17,05,40,8.90
2017,07,17,05,41,8.90
2017,07,17,05,42,8.90
2017,07,17,05,43,9.00
2017,07,17,05,44,9.00
2017,07,17,05,45,9.10
2017,07,17,05,46,9.10
2017,07,17,05,47,9.10
2017,07,17,05,48,9.10
2017,07,17,05,49,9.10
2017,07,17,05,50,9.10
2017,07,17,05,51,9.20
2017,07,17,05,52,9.20
2017,07,17,05,53,9.20
2017,07,17,05,54,9.20
2017,07,17,05,55,9.20
2017,07,17,05,56,9.20
2017,07,17,05,57,9.30
2017,07,17,05,58,9.30
2017,07,17,05,59,9.30
2017,07,17,06,00,9.30
2017,07,17,06,01,9.30
2017,07,17,06,02,9.30
2017,07,17,06,03,9.30
2017,07,17,06,04,9.30
2017,07,17,06,05,9.20
2017,07,17,06,06,9.20
2017,07,17,06,07,9.20
2017,07,17,06,08,9.30
2017,07,17,06,09,9.30
2017,07,17,06,10,9.30
2017,07,17,06,11,9.30
2017,07,17,06,12,9.40
2017,07,17,06,13,9.40
2017,07,17,06,14,9.40
2017,07,17,06,15,9.40
2017,07,17,06,16,9.40
2017,07,17,06,17,9.40
2017,07,17,06,18,9.40
2017,07,17,06,19,9.40
2017,07,17,06,20,9.50
2017,07,17,06,21,9.60
2017,07,17,06,22,9.60
2017,07,17,06,23,9.70
2017,07,17,06,24,9.70
2017,07,17,06,25,9.80
2017,07,17,06,26,9.80
2017,07,17,06,27,9.80
2017,07,17,06,28,9.90
2017,07,17,06,29,10.00
2017,07,17,06,30,10.00
2017,07,17,06,31,10.10
2017,07,17,06,32,10.20
2017,07,17,06,33,10.30
2017,07,17,06,34,10.30
2017,07,17,06,35,10.40
2017,07,17,06,36,10.50
2017,07,17,06,37,10.60
2017,07,17,06,38,10.60
2017,07,17,06,39,10.70
2017,07,17,06,40,10.80
2017,07,17,06,41,10.80
2017,07,17,06,42,10.90
2017,07,17,06,43,11.00
2017,07,17,06,44,11.10
2017,07,17,06,45,11.10
2017,07,17,06,46,11.20
2017,07,17,06,47,11.20
2017,07,17,06,48,11.30
2017,07,17,06,49,11.40
2017,07,17,06,50,11.40
2017,07,17,06,51,11.50
2017,07,17,06,52,11.60
2017,07,17,06,53,11.60
2017,07,17,06,54,11.70
2017,07,17,06,55,11.70
2017,07,17,06,56,11.80
2017,07,17,06,57,11.80
2017,07,17,06,58,11.80
2017,07,17,06,59,11.90
2017,07,17,07,00,11.90
2017,07,17,07,01,12.00
2017,07,17,07,02,12.00
2017,07,17,07,03,12.10
2017,07,17,07,04,12.10
2017,07,17,07,05,12.20
2017,07,17,07,06,12.20
2017,07,17,07,07,12.20
2017,07,17,07,08,12.30
2017,07,17,07,09,12.30
2017,07,17,07,10,12.30
2017,07,17,07,11,12.40
2017,07,17,07,12,12.40
2017,07,17,07,13,12.40
2017,07,17,07,14,12.50
2017,07,17,07,15,12.50
2017,07,17,07,16,12.60
2017,07,17,07,17,12.60
2017,07,17,07,18,12.70
2017,07,17,07,19,12.70
2017,07,17,07,20,12.70
2017,07,17,07,21,12.80
2017,07,17,07,22,12.80
2017,07,17,07,23,12.80
2017,07,17,07,24,12.80
2017,07,17,07,25,12.80
2017,07,17,07,26,12.80
2017,07,17,07,27,12.80
2017,07,17,07,28,12.90
2017,07,17,07,29,12.90
2017,07,17,07,30,12.90
2017,07,17,07,31,12.90
2017,07,17,07,32,12.90
2017,07,17,07,33,12.90
2017,07,17,07,34,12.90
2017,07,17,07,35,13.00
2017,07,17,07,36,13.00
2017,07,17,07,37,13.10
2017,07,17,07,38,13.10
2017,07,17,07,39,13.10
2017,07,17,07,40,13.10
2017,07,17,07,41,13.20
2017,07,17,07,42,13.20
2017,07,17,07,43,13.30
2017,07,17,07,44,13.30
2017,07,17,07,45,13.30
2017,07,17,07,46,13.40
2017,07,17,07,47,13.40
2017,07,17,07,48,13.50
2017,07,17,07,49,13.50
2017,07,17,07,50,13.60
2017,07,17,07,51,13.60
2017,07,17,07,52,13.70
2017,07,17,07,53,13.70
2017,07,17,07,54,13.70
2017,07,17,07,55,13.80
2017,07,17,07,56,13.80
2017,07,17,07,57,13.90
2017,07,17,07,58,13.90
2017,07,17,07,59,14.00
2017,07,17,08,00,14.00
2017,07,17,08,01,14.00
2017,07,17,08,02,14.00
2017,07,17,08,03,14.00
2017,07,17,08,04,14.10
2017,07,17,08,05,14.10
2017,07,17,08,06,14.10
2017,07,17,08,07,14.20
2017,07,17,08,08,14.20
2017,07,17,08,09,14.30
2017,07,17,08,10,14.30
2017,07,17,08,11,14.30
2017,07,17,08,12,14.30
2017,07,17,08,13,14.30
2017,07,17,08,14,14.30
2017,07,17,08,15,14.30
2017,07,17,08,16,14.40
2017,07,17,08,17,14.40
2017,07,17,08,18,14.40
2017,07,17,08,19,14.40
2017,07,17,08,20,14.50
2017,07,17,08,21,14.50
2017,07,17,08,22,14.60
2017,07,17,08,23,14.60
2017,07,17,08,24,14.70
2017,07,17,08,25,14.70
2017,07,17,08,26,14.70
2017,07,17,08,27,14.70
2017,07,17,08,28,14.70
2017,07,17,08,29,14.70
2017,07,17,08,30,14.80
2017,07,17,08,31,14.80
2017,07,17,08,32,14.80
2017,07,17,08,33,14.80
2017,07,17,08,34,14.80
2017,07,17,08,35,14.80
2017,07,17,08,36,14.80
2017,07,17,08,37,14.90
2017,07,17,08,38,14.90
2017,07,17,08,39,14.90
2017,07,17,08,40,15.00
2017,07,17,08,41,15.00
2017,07,17,08,42,15.10
2017,07,17,08,43,15.20
2017,07,17,08,44,15.20
2017,07,17,08,45,15.20
2017,07,17,08,46,15.20
2017,07,17,08,47,15.30
2017,07,17,08,48,15.30
2017,07,17,08,49,15.30
2017,07,17,08,50,15.30
2017,07,17,08,51,15.30
2017,07,17,08,52,15.30
2017,07,17,08,53,15.30
2017,07,17,08,54,15.40
2017,07,17,08,55,15.40
2017,07,17,08,56,15.40
2017,07,17,08,57,15.50
2017,07,17,08,58,15.50
2017,07,17,08,59,15.60
2017,07,17,09,00,15.60
2017,07,17,09,01,15.60
2017,07,17,09,02,15.60
2017,07,17,09,03,15.60
2017,07,17,09,04,15.70
2017,07,17,09,05,15.70
2017,07,17,09,06,15.70
2017,07,17,09,07,15.80
2017,07,17,09,08,15.80
2017,07,17,09,09,15.90
2017,07,17,09,10,16.00
2017,07,17,09,11,16.00
2017,07,17,09,12,16.00
2017,07,17,09,13,16.00
2017,07,17,09,14,16.00
2017,07,17,09,15,16.00
2017,07,17,09,16,15.90
2017,07,17,09,17,15.90
2017,07,17,09,18,15.90
2017,07,17,09,19,15.90
2017,07,17,09,20,15.90
2017,07,17,09,21,15.90
2017,07,17,09,22,15.90
2017,07,17,09,23,16.00
2017,07,17,09,24,16.00
2017,07,17,09,25,16.10
2017,07,17,09,26,16.10
2017,07,17,09,27,16.10
2017,07,17,09,28,16.00
2017,07,17,09,29,16.00
2017,07,17,09,30,16.00
2017,07,17,09,31,16.00
2017,07,17,09,32,16.00
2017,07,17,09,33,16.10
2017,07,17,09,34,16.10
2017,07,17,09,35,16.10
2017,07,17,09,36,16.20
2017,07,17,09,37,16.20
2017,07,17,09,38,16.30
2017,07,17,09,39,16.30
2017,07,17,09,40,16.40
2017,07,17,09,41,16.40
2017,07,17,09,42,16.40
2017,07,17,09,43,16.50
2017,07,17,09,44,16.60
2017,07,17,09,45,16.60
2017,07,17,09,46,16.60
2017,07,17,09,47,16.70
2017,07,17,09,48,16.70
2017,07,17,09,49,16.70
2017,07,17,09,50,16.80
2017,07,17,09,51,16.80
2017,07,17,09,52,16.80
2017,07,17,09,53,16.90
2017,07,17,09,54,16.90
2017,07,17,09,55,16.90
2017,07,17,09,56,17.00
2017,07,17,09,57,17.00
2017,07,17,09,58,17.10
2017,07,17,09,59,17.20
2017,07,17,10,00,17.30
2017,07,17,10,01,17.30
2017,07,17,10,02,17.30
2017,07,17,10,03,17.20
2017,07,17,10,04,17.20
2017,07,17,10,05,17.20
2017,07,17,10,06,17.20
2017,07,17,10,07,17.20
2017,07,17,10,08,17.20
2017,07,17,10,09,17.10
2017,07,17,10,10,17.10
2017,07,17,10,11,17.10
2017,07,17,10,12,17.10
2017,07,17,10,13,17.10
2017,07,17,10,14,17.10
2017,07,17,10,15,17.10
2017,07,17,10,16,17.10
2017,07,17,10,17,17.10
2017,07,17,10,18,17.10
2017,07,17,10,19,17.10
2017,07,17,10,20,17.10
2017,07,17,10,21,17.20
2017,07,17,10,22,17.20
2017,07,17,10,23,17.30
2017,07,17,10,24,17.40
2017,07,17,10,25,17.40
2017,07,17,10,26,17.40
2017,07,17,10,27,17.40
2017,07,17,10,28,17.40
2017,07,17,10,29,17.50
2017,07,17,10,30,17.40
2017,07,17,10,31,17.50
2017,07,17,10,32,17.50
2017,07,17,10,33,17.50
2017,07,17,10,34,17.60
2017,07,17,10,35,17.60
2017,07,17,10,36,17.70
2017,07,17,10,37,17.70
2017,07,17,10,38,17.80
2017,07,17,10,39,17.80
2017,07,17,10,40,17.80
2017,07,17,10,41,17.80
2017,07,17,10,42,17.80
2017,07,17,10,43,17.80
2017,07,17,10,44,17.80
2017,07,17,10,45,17.80
2017,07,17,10,46,17.90
2017,07,17,10,47,17.90
2017,07,17,10,48,17.90
2017,07,17,10,49,18.00
2017,07,17,10,50,18.00
2017,07,17,10,51,18.00
2017,07,17,10,52,17.90
2017,07,17,10,53,17.90
2017,07,17,10,54,18.00
2017,07,17,10,55,18.00
2017,07,17,10,56,18.10
2017,07,17,10,57,18.10
2017,07,17,10,58,18.20
2017,07,17,10,59,18.20
2017,07,17,11,00,18.30
2017,07,17,11,01,18.40
2017,07,17,11,02,18.60
2017,07,17,11,03,18.70
2017,07,17,11,04,18.80
2017,07,17,11,05,18.90
2017,07,17,11,06,19.00
2017,07,17,11,07,19.00
2017,07,17,11,08,19.10
2017,07,17,11,09,19.10
2017,07,17,11,10,19.20
2017,07,17,11,11,19.20
2017,07,17,11,12,19.20
2017,07,17,11,13,19.20
2017,07,17,11,14,19.20
2017,07,17,11,15,19.20
2017,07,17,11,16,19.20
2017,07,17,11,17,19.20
2017,07,17,11,18,19.20
2017,07,17,11,19,19.30
2017,07,17,11,20,19.30
2017,07,17,11,21,19.30
2017,07,17,11,22,19.30
2017,07,17,11,23,19.40
2017,07,17,11,24,19.50
2017,07,17,11,25,19.70
2017,07,17,11,26,19.70
2017,07,17,11,27,19.80
2017,07,17,11,28,19.90
2017,07,17,11,29,20.00
2017,07,17,11,30,20.00
2017,07,17,11,31,20.10
2017,07,17,11,32,20.10
2017,07,17,11,33,20.10
2017,07,17,11,34,20.10
2017,07,17,11,35,20.00
2017,07,17,11,36,20.00
2017,07,17,11,37,19.90
2017,07,17,11,38,19.90
2017,07,17,11,39,19.90
2017,07,17,11,40,19.90
2017,07,17,11,41,19.90
2017,07,17,11,42,20.00
2017,07,17,11,43,20.10
2017,07,17,11,44,20.20
2017,07,17,11,45,20.30
2017,07,17,11,46,20.30
2017,07,17,11,47,20.30
2017,07,17,11,48,20.30
2017,07,17,11,49,20.30
2017,07,17,11,50,20.30
2017,07,17,11,51,20.20
2017,07,17,11,52,20.10
2017,07,17,11,53,20.10
2017,07,17,11,54,20.10
2017,07,17,11,55,20.10
2017,07,17,11,56,20.10
2017,07,17,11,57,20.10
2017,07,17,11,58,20.10
2017,07,17,11,59,20.10
2017,07,17,12,00,20.10
2017,07,17,12,01,20.10
2017,07,17,12,02,20.00
2017,07,17,12,03,20.00
2017,07,17,12,04,19.90
2017,07,17,12,05,19.90
2017,07,17,12,06,19.80
2017,07,17,12,07,19.80
2017,07,17,12,08,19.80
2017,07,17,12,09,19.80
2017,07,17,12,10,19.80
2017,07,17,12,11,19.80
2017,07,17,12,12,19.90
2017,07,17,12,13,20.00
2017,07,17,12,14,20.00
2017,07,17,12,15,20.00
2017,07,17,12,16,20.00
2017,07,17,12,17,20.00
2017,07,17,12,18,20.10
2017,07,17,12,19,20.10
2017,07,17,12,20,20.10
2017,07,17,12,21,20.20
2017,07,17,12,22,20.30
2017,07,17,12,23,20.30
2017,07,17,12,24,20.40
2017,07,17,12,25,20.40
2017,07,17,12,26,20.40
2017,07,17,12,27,20.40
2017,07,17,12,28,20.30
2017,07,17,12,29,20.20
2017,07,17,12,30,20.20
2017,07,17,12,31,20.20
2017,07,17,12,32,20.10
2017,07,17,12,33,20.10
2017,07,17,12,34,20.10
2017,07,17,12,35,20.10
2017,07,17,12,36,20.20
2017,07,17,12,37,20.20
2017,07,17,12,38,20.30
2017,07,17,12,39,20.30
2017,07,17,12,40,20.30
2017,07,17,12,41,20.40
2017,07,17,12,42,20.50
2017,07,17,12,43,20.50
2017,07,17,12,44,20.60
2017,07,17,12,45,20.60
2017,07,17,12,46,20.60
2017,07,17,12,47,20.70
2017,07,17,12,48,20.70
2017,07,17,12,49,20.60
2017,07,17,12,50,20.60
2017,07,17,12,51,20.60
2017,07,17,12,52,20.60
2017,07,17,12,53,20.60
2017,07,17,12,54,20.60
2017,07,17,12,55,20.60
2017,07,17,12,56,20.60
2017,07,17,12,57,20.70
2017,07,17,12,58,20.80
2017,07,17,12,59,20.90
2017,07,17,13,00,20.90
2017,07,17,13,01,20.90
2017,07,17,13,02,21.00
2017,07,17,13,03,21.00
2017,07,17,13,04,21.10
2017,07,17,13,05,21.10
2017,07,17,13,06,21.10
2017,07,17,13,07,21.10
2017,07,17,13,08,21.10
2017,07,17,13,09,21.00
2017,07,17,13,10,21.00
2017,07,17,13,11,21.00
2017,07,17,13,12,20.90
2017,07,17,13,13,20.90
2017,07,17,13,14,21.00
2017,07,17,13,15,21.00
2017,07,17,13,16,21.00
2017,07,17,13,17,21.00
2017,07,17,13,18,21.00
2017,07,17,13,19,21.00
2017,07,17,13,20,21.10
2017,07,17,13,21,21.20
2017,07,17,13,22,21.30
2017,07,17,13,23,21.50
2017,07,17,13,24,21.60
2017,07,17,13,25,21.70
2017,07,17,13,26,21.80
2017,07,17,13,27,21.90
2017,07,17,13,28,21.90
2017,07,17,13,29,21.90
2017,07,17,13,30,21.90
2017,07,17,13,31,21.80
2017,07,17,13,32,21.80
2017,07,17,13,33,21.90
2017,07,17,13,34,22.00
2017,07,17,13,35,22.00
2017,07,17,13,36,21.90
2017,07,17,13,37,21.90
2017,07,17,13,38,21.90
2017,07,17,13,39,21.80
2017,07,17,13,40,21.80
2017,07,17,13,41,21.80
2017,07,17,13,42,21.80
2017,07,17,13,43,21.80
2017,07,17,13,44,21.80
2017,07,17,13,45,21.80
2017,07,17,13,46,21.80
2017,07,17,13,47,21.90
2017,07,17,13,48,21.90
2017,07,17,13,49,22.00
2017,07,17,13,50,22.00
2017,07,17,13,51,22.10
2017,07,17,13,52,22.10
2017,07,17,13,53,22.10
2017,07,17,13,54,22.20
2017,07,17,13,55,22.10
2017,07,17,13,56,22.10
2017,07,17,13,57,22.10
2017,07,17,13,58,22.10
2017,07,17,13,59,22.10
2017,07,17,14,00,22.10
2017,07,17,14,01,22.10
2017,07,17,14,02,22.10
2017,07,17,14,03,22.10
2017,07,17,14,04,22.10
2017,07,17,14,05,22.20
2017,07,17,14,06,22.20
2017,07,17,14,07,22.30
2017,07,17,14,08,22.30
2017,07,17,14,09,22.30
2017,07,17,14,10,22.30
2017,07,17,14,11,22.30
2017,07,17,14,12,22.30
2017,07,17,14,13,22.30
2017,07,17,14,14,22.30
2017,07,17,14,15,22.30
2017,07,17,14,16,22.30
2017,07,17,14,17,22.30
2017,07,17,14,18,22.40
2017,07,17,14,19,22.50
2017,07,17,14,20,22.60
2017,07,17,14,21,22.70
2017,07,17,14,22,22.70
2017,07,17,14,23,22.70
2017,07,17,14,24,22.70
2017,07,17,14,25,22.80
2017,07,17,14,26,22.70
2017,07,17,14,27,22.70
2017,07,17,14,28,22.70
2017,07,17,14,29,22.70
2017,07,17,14,30,22.70
2017,07,17,14,31,22.80
2017,07,17,14,32,22.80
2017,07,17,14,33,22.80
2017,07,17,14,34,22.80
2017,07,17,14,35,22.70
2017,07,17,14,36,22.60
2017,07,17,14,37,22.50
2017,07,17,14,38,22.50
2017,07,17,14,39,22.50
2017,07,17,14,40,22.50
2017,07,17,14,41,22.50
2017,07,17,14,42,22.50
2017,07,17,14,43,22.60
2017,07,17,14,44,22.60
2017,07,17,14,45,22.60
2017,07,17,14,46,22.60
2017,07,17,14,47,22.70
2017,07,17,14,48,22.70
2017,07,17,14,49,22.60
2017,07,17,14,50,22.60
2017,07,17,14,51,22.60
2017,07,17,14,52,22.60
2017,07,17,14,53,22.50
2017,07,17,14,54,22.50
2017,07,17,14,55,22.50
2017,07,17,14,56,22.50
2017,07,17,14,57,22.50
2017,07,17,14,58,22.50
2017,07,17,14,59,22.60
2017,07,17,15,00,22.60
2017,07,17,15,01,22.60
2017,07,17,15,02,22.70
2017,07,17,15,03,22.60
2017,07,17,15,04,22.60
2017,07,17,15,05,22.60
2017,07,17,15,06,22.60
2017,07,17,15,07,22.60
2017,07,17,15,08,22.60
2017,07,17,15,09,22.50
2017,07,17,15,10,22.50
2017,07,17,15,11,22.60
2017,07,17,15,12,22.60
2017,07,17,15,13,22.70
2017,07,17,15,14,22.80
2017,07,17,15,15,22.80
2017,07,17,15,16,22.80
2017,07,17,15,17,22.80
2017,07,17,15,18,22.80
2017,07,17,15,19,22.90
2017,07,17,15,20,23.00
2017,07,17,15,21,23.10
2017,07,17,15,22,23.10
2017,07,17,15,23,23.10
2017,07,17,15,24,23.10
2017,07,17,15,25,23.10
2017,07,17,15,26,23.10
2017,07,17,15,27,23.10
2017,07,17,15,28,23.00
2017,07,17,15,29,23.00
2017,07,17,15,30,22.90
2017,07,17,15,31,22.90
2017,07,17,15,32,22.90
2017,07,17,15,33,23.00
2017,07,17,15,34,23.00
2017,07,17,15,35,23.00
2017,07,17,15,36,23.00
2017,07,17,15,37,23.00
2017,07,17,15,38,23.10
2017,07,17,15,39,23.10
2017,07,17,15,40,23.10
2017,07,17,15,41,23.20
2017,07,17,15,42,23.20
2017,07,17,15,43,23.20
2017,07,17,15,44,23.20
2017,07,17,15,45,23.20
2017,07,17,15,46,23.20
2017,07,17,15,47,23.20
2017,07,17,15,48,23.20
2017,07,17,15,49,23.20
2017,07,17,15,50,23.30
2017,07,17,15,51,23.30
2017,07,17,15,52,23.40
2017,07,17,15,53,23.40
2017,07,17,15,54,23.50
2017,07,17,15,55,23.60
2017,07,17,15,56,23.60
2017,07,17,15,57,23.70
2017,07,17,15,58,23.70
2017,07,17,15,59,23.80
2017,07,17,16,00,23.80
2017,07,17,16,01,23.80
2017,07,17,16,02,23.90
2017,07,17,16,03,24.00
2017,07,17,16,04,24.00
2017,07,17,16,05,24.00
2017,07,17,16,06,24.00
2017,07,17,16,07,24.00
2017,07,17,16,08,24.00
2017,07,17,16,09,24.00
2017,07,17,16,10,24.00
2017,07,17,16,11,24.00
2017,07,17,16,12,24.00
2017,07,17,16,13,24.00
2017,07,17,16,14,24.00
2017,07,17,16,15,23.90
2017,07,17,16,16,23.90
2017,07,17,16,17,23.80
2017,07,17,16,18,23.80
2017,07,17,16,19,23.80
2017,07,17,16,20,23.80
2017,07,17,16,21,23.90
2017,07,17,16,22,23.90
2017,07,17,16,23,24.00
2017,07,17,16,24,24.00
2017,07,17,16,25,24.10
2017,07,17,16,26,24.10
2017,07,17,16,27,24.10
2017,07,17,16,28,24.10
2017,07,17,16,29,24.00
2017,07,17,16,30,23.90
2017,07,17,16,31,23.80
2017,07,17,16,32,23.80
2017,07,17,16,33,23.70
2017,07,17,16,34,23.70
2017,07,17,16,35,23.70
2017,07,17,16,36,23.70
2017,07,17,16,37,23.70
2017,07,17,16,38,23.70
2017,07,17,16,39,23.80
2017,07,17,16,40,23.80
2017,07,17,16,41,23.70
2017,07,17,16,42,23.70
2017,07,17,16,43,23.70
2017,07,17,16,44,23.70
2017,07,17,16,45,23.70
2017,07,17,16,46,23.80
2017,07,17,16,47,23.80
2017,07,17,16,48,23.80
2017,07,17,16,49,23.80
2017,07,17,16,50,23.90
2017,07,17,16,51,24.00
2017,07,17,16,52,24.00
2017,07,17,16,53,24.10
2017,07,17,16,54,24.10
2017,07,17,16,55,24.10
2017,07,17,16,56,24.10
2017,07,17,16,57,24.10
2017,07,17,16,58,24.10
2017,07,17,16,59,24.10
2017,07,17,17,00,24.10
2017,07,17,17,01,24.10
2017,07,17,17,02,24.10
2017,07,17,17,03,24.10
2017,07,17,17,04,24.10
2017,07,17,17,05,24.10
2017,07,17,17,06,24.10
2017,07,17,17,07,24.10
2017,07,17,17,08,24.10
2017,07,17,17,09,24.10
2017,07,17,17,10,24.20
2017,07,17,17,11,24.20
2017,07,17,17,12,24.20
2017,07,17,17,13,24.30
2017,07,17,17,14,24.30
2017,07,17,17,15,24.30
2017,07,17,17,16,24.20
2017,07,17,17,17,24.20
2017,07,17,17,18,24.20
2017,07,17,17,19,24.30
2017,07,17,17,20,24.30
2017,07,17,17,21,24.30
2017,07,17,17,22,24.40
2017,07,17,17,23,24.40
2017,07,17,17,24,24.50